TimeEDT,TemperatureF,Dew PointF,Humidity,Sea Level PressureIn,VisibilityMPH,Wind Direction,Wind SpeedMPH,Gust SpeedMPH,PrecipitationIn,Events,Conditions,WindDirDegrees,DateUTC
12:15 AM,51.8,42.8,71,29.75,10.0,Calm,Calm,-,N/A,,Mostly Cloudy,0,2013-11-02 04:15:00
12:35 AM,51.8,42.8,71,29.74,10.0,Calm,Calm,-,N/A,,Mostly Cloudy,0,2013-11-02 04:35:00
12:55 AM,50.0,42.8,76,29.74,10.0,Calm,Calm,-,N/A,,Partly Cloudy,0,2013-11-02 04:55:00
1:15 AM,50.0,42.8,76,29.73,10.0,SSW,3.5,-,N/A,,Partly Cloudy,200,2013-11-02 05:15:00
1:35 AM,50.0,42.8,76,29.73,10.0,SSW,4.6,-,N/A,,Partly Cloudy,200,2013-11-02 05:35:00
1:55 AM,50.0,41.0,71,29.72,10.0,Calm,Calm,-,N/A,,Partly Cloudy,0,2013-11-02 05:55:00
2:15 AM,50.0,41.0,71,29.72,10.0,Calm,Calm,-,N/A,,Clear,0,2013-11-02 06:15:00
2:35 AM,48.2,41.0,76,29.72,10.0,Calm,Calm,-,N/A,,Clear,0,2013-11-02 06:35:00
2:55 AM,50.0,41.0,71,29.72,10.0,Calm,Calm,-,N/A,,Partly Cloudy,0,2013-11-02 06:55:00
3:15 AM,50.0,41.0,71,29.71,10.0,Calm,Calm,-,N/A,,Clear,0,2013-11-02 07:15:00
3:35 AM,51.8,41.0,67,29.72,10.0,Calm,Calm,-,N/A,,Scattered Clouds,0,2013-11-02 07:35:00
3:55 AM,53.6,41.0,62,29.72,10.0,SW,9.2,-,N/A,,Partly Cloudy,230,2013-11-02 07:55:00
4:15 AM,53.6,41.0,62,29.73,10.0,WSW,10.4,-,N/A,,Partly Cloudy,240,2013-11-02 08:15:00
4:35 AM,53.6,42.8,67,29.73,10.0,SW,9.2,-,N/A,,Partly Cloudy,230,2013-11-02 08:35:00
4:55 AM,51.8,42.8,71,29.73,10.0,SW,6.9,-,N/A,,Clear,230,2013-11-02 08:55:00
5:15 AM,51.8,42.8,71,29.74,10.0,WSW,9.2,-,N/A,,Partly Cloudy,240,2013-11-02 09:15:00
5:35 AM,51.8,42.8,71,29.74,10.0,WSW,5.8,-,N/A,,Scattered Clouds,240,2013-11-02 09:35:00
5:55 AM,51.8,42.8,71,29.75,10.0,SW,6.9,-,N/A,,Overcast,220,2013-11-02 09:55:00
6:15 AM,51.8,42.8,71,29.75,10.0,WSW,9.2,-,N/A,,Mostly Cloudy,240,2013-11-02 10:15:00
6:35 AM,51.8,42.8,71,29.76,10.0,WSW,8.1,-,N/A,,Mostly Cloudy,240,2013-11-02 10:35:00
6:55 AM,50.0,42.8,76,29.76,10.0,SW,5.8,-,N/A,,Scattered Clouds,230,2013-11-02 10:55:00
7:15 AM,48.2,42.8,82,29.77,10.0,WSW,5.8,-,N/A,,Partly Cloudy,250,2013-11-02 11:15:00
7:35 AM,50.0,42.8,76,29.77,10.0,Calm,Calm,-,N/A,,Mostly Cloudy,0,2013-11-02 11:35:00
7:55 AM,48.2,42.8,82,29.77,10.0,Calm,Calm,-,N/A,,Partly Cloudy,0,2013-11-02 11:55:00
8:15 AM,48.2,42.8,82,29.77,10.0,South,4.6,-,N/A,,Partly Cloudy,180,2013-11-02 12:15:00
8:35 AM,48.2,42.8,82,29.78,10.0,SW,6.9,-,N/A,,Scattered Clouds,230,2013-11-02 12:35:00
8:55 AM,48.2,44.6,87,29.79,8.0,NW,5.8,-,N/A,Rain,Light Rain,310,2013-11-02 12:55:00
9:15 AM,46.4,46.4,100,29.80,4.0,Calm,Calm,-,0.01,,Overcast,0,2013-11-02 13:15:00
9:35 AM,46.4,46.4,100,29.80,10.0,West,4.6,-,0.01,,Mostly Cloudy,270,2013-11-02 13:35:00
9:55 AM,46.4,44.6,93,29.81,10.0,West,6.9,-,0.01,,Mostly Cloudy,260,2013-11-02 13:55:00
10:15 AM,46.4,42.8,87,29.81,10.0,West,9.2,-,N/A,,Mostly Cloudy,270,2013-11-02 14:15:00
10:35 AM,46.4,42.8,87,29.81,10.0,West,9.2,-,N/A,,Mostly Cloudy,280,2013-11-02 14:35:00
10:55 AM,46.4,41.0,81,29.81,10.0,West,9.2,-,N/A,,Mostly Cloudy,270,2013-11-02 14:55:00
11:15 AM,46.4,41.0,81,29.82,10.0,West,9.2,-,N/A,,Mostly Cloudy,270,2013-11-02 15:15:00
11:35 AM,48.2,42.8,82,29.82,10.0,WSW,11.5,17.3,N/A,,Scattered Clouds,250,2013-11-02 15:35:00
11:55 AM,48.2,41.0,76,29.82,10.0,West,10.4,-,N/A,,Scattered Clouds,270,2013-11-02 15:55:00
1:15 PM,51.8,39.2,62,29.81,10.0,NW,8.1,17.3,N/A,,Scattered Clouds,320,2013-11-02 17:15:00
1:35 PM,51.8,37.4,58,29.81,10.0,NW,10.4,-,N/A,,Mostly Cloudy,320,2013-11-02 17:35:00
1:55 PM,50.0,37.4,62,29.81,10.0,West,9.2,16.1,N/A,,Mostly Cloudy,280,2013-11-02 17:55:00
2:15 PM,48.2,39.2,71,29.81,9.0,WNW,8.1,18.4,N/A,,Mostly Cloudy,300,2013-11-02 18:15:00
2:35 PM,48.2,39.2,71,29.81,10.0,WSW,10.4,-,N/A,,Scattered Clouds,250,2013-11-02 18:35:00
2:55 PM,51.8,39.2,62,29.81,10.0,WSW,11.5,-,N/A,,Clear,250,2013-11-02 18:55:00
3:15 PM,51.8,37.4,58,29.81,10.0,West,12.7,-,N/A,,Partly Cloudy,270,2013-11-02 19:15:00
3:35 PM,51.8,37.4,58,29.81,10.0,WSW,11.5,20.7,N/A,,Mostly Cloudy,240,2013-11-02 19:35:00
3:55 PM,51.8,35.6,54,29.82,10.0,West,15.0,20.7,N/A,,Mostly Cloudy,270,2013-11-02 19:55:00
4:15 PM,51.8,35.6,54,29.83,10.0,West,12.7,19.6,N/A,,Scattered Clouds,280,2013-11-02 20:15:00
4:35 PM,51.8,35.6,54,29.84,10.0,WNW,3.5,-,N/A,,Scattered Clouds,290,2013-11-02 20:35:00
4:55 PM,51.8,35.6,54,29.84,10.0,West,6.9,17.3,N/A,,Mostly Cloudy,280,2013-11-02 20:55:00
5:15 PM,50.0,35.6,58,29.85,10.0,West,12.7,-,N/A,,Mostly Cloudy,260,2013-11-02 21:15:00
5:35 PM,48.2,35.6,62,29.86,10.0,West,12.7,-,N/A,,Mostly Cloudy,270,2013-11-02 21:35:00
5:55 PM,48.2,35.6,62,29.87,10.0,WSW,12.7,17.3,N/A,,Partly Cloudy,250,2013-11-02 21:55:00
6:15 PM,46.4,39.2,76,29.88,5.0,West,6.9,19.6,N/A,,Haze,270,2013-11-02 22:15:00
6:35 PM,46.4,39.2,76,29.89,10.0,West,8.1,-,N/A,,Scattered Clouds,260,2013-11-02 22:35:00
6:55 PM,46.4,37.4,71,29.90,10.0,West,10.4,-,N/A,,Mostly Cloudy,260,2013-11-02 22:55:00
7:15 PM,44.6,39.2,81,29.91,10.0,West,10.4,-,N/A,,Mostly Cloudy,260,2013-11-02 23:15:00
7:35 PM,44.6,39.2,81,29.92,10.0,WSW,8.1,-,N/A,,Overcast,250,2013-11-02 23:35:00
7:55 PM,44.6,39.2,81,29.93,10.0,SW,5.8,-,N/A,,Scattered Clouds,220,2013-11-02 23:55:00
8:15 PM,44.6,41.0,87,29.94,10.0,SW,5.8,-,N/A,,Scattered Clouds,220,2013-11-03 00:15:00
8:35 PM,44.6,41.0,87,29.95,10.0,Calm,Calm,-,N/A,,Mostly Cloudy,0,2013-11-03 00:35:00
8:55 PM,42.8,39.2,87,29.95,10.0,SSW,5.8,-,N/A,,Scattered Clouds,210,2013-11-03 00:55:00
9:15 PM,42.8,41.0,93,29.96,10.0,Calm,Calm,-,N/A,,Scattered Clouds,0,2013-11-03 01:15:00
9:35 PM,42.8,41.0,93,29.96,10.0,Calm,Calm,-,N/A,,Partly Cloudy,0,2013-11-03 01:35:00
9:55 PM,42.8,39.2,87,29.97,10.0,SW,6.9,-,N/A,,Partly Cloudy,220,2013-11-03 01:55:00
10:15 PM,42.8,39.2,87,29.98,10.0,SW,6.9,-,N/A,,Partly Cloudy,220,2013-11-03 02:15:00
10:35 PM,42.8,39.2,87,29.99,10.0,SW,5.8,-,N/A,,Partly Cloudy,230,2013-11-03 02:35:00
10:55 PM,42.8,39.2,87,29.99,10.0,SW,5.8,-,N/A,,Partly Cloudy,220,2013-11-03 02:55:00
11:15 PM,42.8,39.2,87,29.99,10.0,WSW,5.8,-,N/A,,Partly Cloudy,240,2013-11-03 03:15:00
11:35 PM,42.8,37.4,81,30.00,10.0,WSW,6.9,-,N/A,,Clear,250,2013-11-03 03:35:00
11:55 PM,42.8,37.4,81,29.99,10.0,WSW,5.8,-,N/A,,Clear,250,2013-11-03 03:55:00